loading
DOY 171 | 2024-06-19T22:52:20Z

THOR ABLESTAR DEB, 561

Orbit data source: Space-Track

THOR ABLESTAR DEB, 561 is space debris in LEO originally from a launch on Thu, 29 Jun 1961 UTC launched from the Air Force Eastern Test Range (AFETR). Debris objects in space refer to the collection of defunct objects orbiting the Earth. Examples of debris include non-operational satellites, rocket bodies, and fragments generated from explosions, collisions, or faulty payload assembly.

Loading next visibility...
Loading greatness...
THOR ABLESTAR DEB details
NORAD ID561
COSPAR ID
1961-015GT
Orbit
LEO
Last TLE update10 hours ago
Origin
Flag of USUSAF SSD (US)
ManufacturerUnknown
BusUnknown
MotorUnknown
MassWet unknown, Dry mass unknown
Launch date (UTC)
1961-06-29 (63 years ago)
Launch vehicleUnknown
Launch site
Air Force Eastern Test Range (AFETR)
Object type
Payload
Rocket body
Debris
Radar Cross SectionMedium (>0.1 m² and <1 m²)
Predictive object data (real-time)
Latitude48.45514°
Longitude-99.82445°
Altitude1,191.33 km
Speed7.408 km/s
Apparent Right ascension23h 05m 29s
Apparent Declination9° 31' 56"
Sunlit
Object is in daylight
Predictive observer data (real-time)
Local Sidereal Time09:46:28
Azimuth335.235° NNW
Elevation-37.273°
Doppler factor1
Orbital elements
Apogee1,993.69 km
Perigee1,009.327 km
Semi-major axis7,879.646 km
Eccentricity0.0624624
Inclination67.7533°
RAAN213.6737°
Arg. of periapsis73.9778°
True anomaly40.98476°
Mean anomaly36.4526°
Mean motion3.10301 °/min
BSTAR-0.0010771
Period116.02 mins
Definitive object data (Epoch: 2024-06-19T13:08:41.42Z)
Latitude57.15823°
Longitude-110.83312°
Altitude1,127.62 km
Speed7.471 km/s
True Right ascension23h 38m 22s
True Declination57° 00' 33"
Sunlit
Object was in daylight at TLE epoch
TLE from 10 hours ago
0 THOR ABLESTAR DEB
1 00561U 61015GT  24171.54770163 -.00000332  00000-0 -10771-2 0  9991
2 00561  67.7533 213.6737 0624624  73.9778  36.4526 12.40825527850824
Epoch: 2024-06-19T13:08Z
No data available

THOR ABLESTAR DEB Visibility forecast

Observer location: 39.9160978°, -105.1181434, 0m alt.

THOR ABLESTAR DEB is not visible in the next 10 days
Span
Click to sort rows by Start time (UTC) header in descending order
Start Az.
Max El. time (UTC)
Max El. Az.
Max El.
End time (UTC)
End Az.